When you browse on this site, cookies collect data to enhance your experience and personalize the content and advertising you see.
Visit our Privacy Policy to learn more. By continuing to use the site, you agree to this use of cookies and data.
  • In Österreich
  • Länderverzeichnis
  • Für 7 Tage
  • Wassertemperatur
  • Satellitenkarten
  • Wetterkarte
  • News
  • Widgets
  • user-avatar
    Anmelden

    Stündliche Wetter Río Gallegos

    Heute, 20 Juni, Donnerstag

    Zeit Temperatur Niederschläge Wind Luftdruck Luftfeuchtigkeit
    00:00 -1°C° 0 mm 8 m/S 754 mmHg 69%
    01:00 -1°C° 0 mm 7 m/S 754 mmHg 69%
    02:00 -1°C° 0 mm 6 m/S 754 mmHg 71%
    03:00 -1°C° 0 mm 6 m/S 754 mmHg 73%
    04:00 -1°C° 0 mm 5 m/S 755 mmHg 74%
    05:00 -1°C° 0 mm 5 m/S 755 mmHg 77%
    06:00 -1°C° 0 mm 5 m/S 755 mmHg 79%
    07:00 -1°C° 0 mm 5 m/S 755 mmHg 80%
    08:00 0°C° 0 mm 4 m/S 755 mmHg 78%
    09:00 +1°C° 0 mm 3 m/S 755 mmHg 77%
    10:00 +3°C° 0 mm 2 m/S 755 mmHg 75%
    11:00 +3°C° 0 mm 3 m/S 754 mmHg 71%
    12:00 +3°C° 0 mm 4 m/S 754 mmHg 68%
    13:00 +4°C° 0 mm 4 m/S 753 mmHg 64%
    14:00 +3°C° 0 mm 5 m/S 752 mmHg 68%
    15:00 +3°C° 0 mm 5 m/S 751 mmHg 71%
    16:00 +2°C° 0 mm 6 m/S 751 mmHg 75%
    17:00 +3°C° 0 mm 6 m/S 750 mmHg 76%
    18:00 +3°C° 0 mm 7 m/S 749 mmHg 76%
    19:00 +3°C° 0 mm 7 m/S 748 mmHg 76%
    20:00 +3°C° 0 mm 6 m/S 747 mmHg 76%
    21:00 +2°C° 0 mm 5 m/S 746 mmHg 77%
    22:00 +3°C° 0 mm 4 m/S 746 mmHg 77%
    23:00 +3°C° 0 mm 4 m/S 745 mmHg 77%

    Morgen, 21 Juni, Freitag

    Zeit Temperatur Niederschläge Wind Luftdruck Luftfeuchtigkeit
    00:00 +2°C° 0 mm 3 m/S 744 mmHg 77%
    01:00 +3°C° 0 mm 2 m/S 744 mmHg 77%
    02:00 +2°C° 0 mm 3 m/S 743 mmHg 77%
    03:00 +2°C° 0 mm 3 m/S 743 mmHg 77%
    04:00 +1°C° 0 mm 4 m/S 743 mmHg 76%
    05:00 +1°C° 0 mm 4 m/S 743 mmHg 77%
    06:00 +2°C° 0 mm 3 m/S 743 mmHg 77%
    07:00 +1°C° 0 mm 3 m/S 743 mmHg 78%
    08:00 +2°C° 0 mm 3 m/S 743 mmHg 75%
    09:00 +3°C° 0 mm 3 m/S 743 mmHg 73%
    10:00 +4°C° 0 mm 3 m/S 743 mmHg 70%
    11:00 +5°C° 0 mm 3 m/S 743 mmHg 72%
    12:00 +5°C° 0 mm 3 m/S 742 mmHg 73%
    13:00 +6°C° 0 mm 4 m/S 742 mmHg 75%
    14:00 +5°C° 0 mm 3 m/S 742 mmHg 78%
    15:00 +5°C° 0 mm 3 m/S 741 mmHg 80%
    16:00 +4°C° 0 mm 3 m/S 741 mmHg 83%
    17:00 +4°C° 0 mm 3 m/S 741 mmHg 83%
    18:00 +4°C° 0 mm 3 m/S 741 mmHg 82%
    19:00 +4°C° 0 mm 4 m/S 741 mmHg 82%
    20:00 +4°C° 0 mm 3 m/S 741 mmHg 81%
    21:00 +4°C° 0 mm 3 m/S 741 mmHg 80%
    22:00 +5°C° 0 mm 2 m/S 741 mmHg 80%
    23:00 +5°C° 0 mm 2 m/S 741 mmHg 80%

    übermorgen, 22 Juni, Samstag

    Zeit Temperatur Niederschläge Wind Luftdruck Luftfeuchtigkeit
    00:00 +5°C° 0 mm 2 m/S 741 mmHg 81%
    01:00 +5°C° 0 mm 2 m/S 741 mmHg 81%
    02:00 +4°C° 0 mm 3 m/S 741 mmHg 81%
    03:00 +4°C° 0 mm 4 m/S 742 mmHg 80%
    04:00 +3°C° 0 mm 5 m/S 742 mmHg 79%
    05:00 +3°C° 0 mm 6 m/S 742 mmHg 81%
    06:00 +3°C° 0 mm 7 m/S 743 mmHg 82%
    07:00 +2°C° 0 mm 9 m/S 744 mmHg 84%
    08:00 +2°C° 0 mm 11 m/S 745 mmHg 78%
    09:00 +1°C° 0 mm 14 m/S 745 mmHg 72%
    10:00 +1°C° 0 mm 16 m/S 746 mmHg 66%
    11:00 +1°C° 0 mm 16 m/S 747 mmHg 64%
    12:00 +1°C° 0 mm 15 m/S 747 mmHg 62%
    13:00 +1°C° 0 mm 14 m/S 748 mmHg 59%
    14:00 +1°C° 0 mm 13 m/S 748 mmHg 62%
    15:00 +1°C° 0 mm 11 m/S 749 mmHg 65%
    16:00 +1°C° 0 mm 9 m/S 750 mmHg 67%
    17:00 0°C° 0 mm 8 m/S 750 mmHg 70%
    18:00 0°C° 0 mm 7 m/S 750 mmHg 73%
    19:00 0°C° 0 mm 5 m/S 750 mmHg 76%
    20:00 0°C° 0 mm 5 m/S 750 mmHg 76%
    21:00 0°C° 0 mm 5 m/S 750 mmHg 77%
    22:00 -1°C° 0 mm 4 m/S 750 mmHg 78%
    23:00 0°C° 0 mm 5 m/S 749 mmHg 76%

    23 Juni, Sonntag

    Zeit Temperatur Niederschläge Wind Luftdruck Luftfeuchtigkeit
    00:00 0°C° 0 mm 5 m/S 749 mmHg 74%
    01:00 -1°C° 0 mm 6 m/S 749 mmHg 73%
    02:00 -1°C° 0 mm 6 m/S 749 mmHg 72%
    03:00 -1°C° 0 mm 7 m/S 748 mmHg 71%
    04:00 -1°C° 0 mm 7 m/S 748 mmHg 70%
    05:00 -1°C° 0 mm 7 m/S 747 mmHg 72%
    06:00 -1°C° 0 mm 6 m/S 747 mmHg 75%
    07:00 0°C° 0 mm 5 m/S 746 mmHg 77%
    08:00 0°C° 0 mm 5 m/S 746 mmHg 71%
    09:00 +1°C° 0 mm 5 m/S 746 mmHg 66%
    10:00 +1°C° 0 mm 5 m/S 745 mmHg 61%
    11:00 +2°C° 0 mm 5 m/S 745 mmHg 59%
    12:00 +2°C° 0 mm 5 m/S 744 mmHg 57%
    13:00 +3°C° 0 mm 5 m/S 744 mmHg 55%
    14:00 +3°C° 0 mm 5 m/S 744 mmHg 57%
    15:00 +2°C° 0 mm 5 m/S 744 mmHg 59%
    16:00 +2°C° 0 mm 5 m/S 744 mmHg 61%
    17:00 +1°C° 0 mm 6 m/S 745 mmHg 66%
    18:00 +1°C° 0 mm 6 m/S 745 mmHg 72%
    19:00 -1°C° 0 mm 6 m/S 745 mmHg 77%
    20:00 -1°C° 0 mm 7 m/S 746 mmHg 73%
    21:00 -1°C° 0 mm 7 m/S 746 mmHg 69%
    22:00 -1°C° 0 mm 8 m/S 747 mmHg 66%
    23:00 -2°C° 0 mm 8 m/S 747 mmHg 67%

    24 Juni, Montag

    Zeit Temperatur Niederschläge Wind Luftdruck Luftfeuchtigkeit
    00:00 -2°C° 0 mm 8 m/S 747 mmHg 69%
    01:00 -2°C° 0 mm 8 m/S 747 mmHg 71%
    02:00 -2°C° 0 mm 8 m/S 747 mmHg 72%
    03:00 -4°C° 0 mm 8 m/S 748 mmHg 72%
    04:00 -4°C° 0 mm 8 m/S 748 mmHg 73%
    05:00 -4°C° 0 mm 8 m/S 748 mmHg 72%
    06:00 -4°C° 0 mm 8 m/S 748 mmHg 70%
    07:00 -4°C° 0 mm 9 m/S 748 mmHg 69%
    08:00 -2°C° 0 mm 8 m/S 748 mmHg 66%
    09:00 -2°C° 0 mm 7 m/S 747 mmHg 63%
    10:00 -1°C° 0 mm 7 m/S 747 mmHg 60%
    11:00 -1°C° 0 mm 7 m/S 746 mmHg 55%
    12:00 0°C° 0 mm 7 m/S 745 mmHg 51%
    13:00 0°C° 0 mm 8 m/S 744 mmHg 47%
    14:00 -1°C° 0.1 mm 8 m/S 744 mmHg 59%
    15:00 -1°C° 0.1 mm 8 m/S 743 mmHg 70%
    16:00 -3°C° 0.1 mm 9 m/S 743 mmHg 82%
    17:00 -3°C° 0 mm 9 m/S 743 mmHg 79%
    18:00 -4°C° 0 mm 10 m/S 744 mmHg 76%
    19:00 -4°C° 0 mm 11 m/S 744 mmHg 72%
    20:00 -4°C° 0 mm 11 m/S 744 mmHg 71%
    21:00 -5°C° 0 mm 10 m/S 744 mmHg 70%
    22:00 -5°C° 0 mm 10 m/S 744 mmHg 68%
    23:00 -5°C° 0 mm 10 m/S 744 mmHg 66%

    25 Juni, Dienstag

    Zeit Temperatur Niederschläge Wind Luftdruck Luftfeuchtigkeit
    00:00 -5°C° 0 mm 10 m/S 744 mmHg 64%
    01:00 -5°C° 0 mm 9 m/S 744 mmHg 62%
    02:00 -5°C° 0 mm 9 m/S 744 mmHg 62%
    03:00 -5°C° 0 mm 9 m/S 744 mmHg 62%
    04:00 -5°C° 0 mm 9 m/S 744 mmHg 62%
    05:00 -5°C° 0 mm 9 m/S 744 mmHg 65%
    06:00 -5°C° 0 mm 9 m/S 744 mmHg 68%
    07:00 -5°C° 0 mm 9 m/S 744 mmHg 71%
    08:00 -5°C° 0 mm 9 m/S 744 mmHg 72%
    09:00 -5°C° 0 mm 10 m/S 744 mmHg 72%
    10:00 -4°C° 0 mm 10 m/S 744 mmHg 73%
    11:00 -4°C° 0 mm 10 m/S 744 mmHg 69%
    12:00 -4°C° 0 mm 10 m/S 744 mmHg 66%
    13:00 -3°C° 0 mm 10 m/S 744 mmHg 62%
    14:00 -4°C° 0 mm 9 m/S 744 mmHg 65%
    15:00 -4°C° 0 mm 8 m/S 744 mmHg 68%
    16:00 -4°C° 0 mm 7 m/S 744 mmHg 71%
    17:00 -4°C° 0 mm 7 m/S 744 mmHg 73%
    18:00 -4°C° 0 mm 6 m/S 743 mmHg 74%
    19:00 -4°C° 0 mm 6 m/S 743 mmHg 76%
    20:00 -4°C° 0 mm 6 m/S 743 mmHg 80%
    21:00 -4°C° 0 mm 6 m/S 743 mmHg 83%
    22:00 -5°C° 0 mm 6 m/S 743 mmHg 87%
    23:00 -5°C° 0 mm 6 m/S 743 mmHg 88%
    Mehr zeigen